Time,TemperatureF,DewpointF,PressureIn,WindDirection,WindDirectionDegrees,WindSpeedMPH,WindSpeedGustMPH,Humidity,HourlyPrecipIn,Conditions,Clouds,dailyrainin,SoftwareType,DateUTC
2013-09-28 00:02:00,79.6,75.0,29.81,NW,304,0.0,0.0,86,0.00,RA,,0.00,WeatherDisplay:10.37,2013-09-28 05:02:00,
2013-09-28 00:07:00,79.6,75.0,29.81,WNW,300,0.0,0.0,86,0.00,RA,,0.00,WeatherDisplay:10.37,2013-09-28 05:07:00,
2013-09-28 00:12:00,79.5,74.9,29.81,NE,43,0.0,0.0,86,0.00,CLR,,0.00,WeatherDisplay:10.37,2013-09-28 05:12:00,
2013-09-28 00:17:00,79.5,75.3,29.81,East,88,0.0,1.2,87,0.00,CLR,,0.00,WeatherDisplay:10.37,2013-09-28 05:17:00,
2013-09-28 00:22:00,79.5,75.3,29.80,West,271,0.2,1.2,87,0.00,CLR,,0.00,WeatherDisplay:10.37,2013-09-28 05:22:00,
2013-09-28 00:28:00,79.5,75.3,29.81,WSW,246,0.0,1.2,87,0.00,CLR,,0.00,WeatherDisplay:10.37,2013-09-28 05:28:00,
2013-09-28 00:33:00,79.5,75.3,29.81,West,270,0.0,1.2,87,0.00,CLR,,0.00,WeatherDisplay:10.37,2013-09-28 05:33:00,
2013-09-28 00:38:00,79.4,75.2,29.81,NNE,15,0.0,0.0,87,0.00,CLR,,0.00,WeatherDisplay:10.37,2013-09-28 05:38:00,
2013-09-28 00:43:00,79.4,75.2,29.81,WNW,290,0.0,0.0,87,0.00,CLR,,0.00,WeatherDisplay:10.37,2013-09-28 05:43:00,
2013-09-28 00:48:00,79.4,75.2,29.81,North,5,0.0,1.0,87,0.00,CLR,,0.00,WeatherDisplay:10.37,2013-09-28 05:48:00,
2013-09-28 00:53:00,79.3,75.1,29.81,NW,306,0.0,0.0,87,0.00,CLR,,0.00,WeatherDisplay:10.37,2013-09-28 05:53:00,
2013-09-28 00:58:00,79.3,75.1,29.81,NW,306,0.0,0.0,87,0.00,CLR,,0.00,WeatherDisplay:10.37,2013-09-28 05:58:00,
2013-09-28 01:03:00,79.3,75.1,29.81,NW,317,0.1,1.2,87,0.00,CLR,,0.00,WeatherDisplay:10.37,2013-09-28 06:03:00,
2013-09-28 01:08:00,79.3,75.1,29.81,West,261,0.0,0.0,87,0.00,CLR,,0.00,WeatherDisplay:10.37,2013-09-28 06:08:00,
2013-09-28 01:13:00,79.3,75.1,29.81,West,261,0.0,0.0,87,0.00,CLR,,0.00,WeatherDisplay:10.37,2013-09-28 06:13:00,
2013-09-28 01:18:00,79.3,75.1,29.81,West,265,0.0,0.0,87,0.00,CLR,,0.00,WeatherDisplay:10.37,2013-09-28 06:18:00,
2013-09-28 01:23:00,79.2,75.0,29.81,West,265,0.0,0.0,87,0.00,CLR,,0.00,WeatherDisplay:10.37,2013-09-28 06:23:00,
2013-09-28 01:28:00,79.2,75.0,29.81,West,275,0.0,0.0,87,0.00,CLR,,0.00,WeatherDisplay:10.37,2013-09-28 06:28:00,
2013-09-28 01:33:00,79.2,75.0,29.81,West,275,0.0,0.0,87,0.00,CLR,,0.00,WeatherDisplay:10.37,2013-09-28 06:33:00,
2013-09-28 01:38:00,79.2,75.0,29.82,NE,53,0.0,0.0,87,0.00,CLR,,0.00,WeatherDisplay:10.37,2013-09-28 06:38:00,
2013-09-28 01:43:00,79.2,75.0,29.81,NNW,346,0.0,0.0,87,0.00,CLR,,0.00,WeatherDisplay:10.37,2013-09-28 06:43:00,
2013-09-28 01:48:00,79.2,75.3,29.81,NNW,338,0.0,0.0,88,0.00,CLR,,0.00,WeatherDisplay:10.37,2013-09-28 06:48:00,
2013-09-28 01:53:00,79.2,75.3,29.81,NNW,338,0.0,0.0,88,0.00,CLR,,0.00,WeatherDisplay:10.37,2013-09-28 06:53:00,
2013-09-28 01:58:00,79.1,75.2,29.81,NNW,338,0.0,0.0,88,0.00,CLR,,0.00,WeatherDisplay:10.37,2013-09-28 06:58:00,
2013-09-28 02:03:00,79.1,75.2,29.81,NNW,337,0.0,0.0,88,0.00,CLR,,0.00,WeatherDisplay:10.37,2013-09-28 07:03:00,
2013-09-28 02:08:00,79.0,75.1,29.81,NW,325,0.5,3.5,88,0.00,CLR,,0.00,WeatherDisplay:10.37,2013-09-28 07:08:00,
2013-09-28 02:13:00,78.9,75.0,29.81,NNW,330,0.0,0.0,88,0.00,CLR,,0.00,WeatherDisplay:10.37,2013-09-28 07:13:00,
2013-09-28 02:18:00,78.9,75.0,29.81,NNW,330,0.0,0.0,88,0.00,CLR,,0.00,WeatherDisplay:10.37,2013-09-28 07:18:00,
2013-09-28 02:23:00,78.9,75.0,29.81,NNW,331,0.0,0.0,88,0.00,CLR,,0.00,WeatherDisplay:10.37,2013-09-28 07:23:00,
2013-09-28 02:28:00,78.9,75.0,29.81,NNW,332,0.0,0.0,88,0.00,CLR,,0.00,WeatherDisplay:10.37,2013-09-28 07:28:00,
2013-09-28 02:33:00,78.8,74.9,29.81,NNW,332,0.0,0.0,88,0.00,CLR,,0.00,WeatherDisplay:10.37,2013-09-28 07:33:00,
2013-09-28 02:38:00,78.8,74.9,29.81,NW,309,0.0,1.2,88,0.00,CLR,,0.00,WeatherDisplay:10.37,2013-09-28 07:38:00,
2013-09-28 02:43:00,78.8,74.9,29.81,NW,309,0.0,0.0,88,0.00,CLR,,0.00,WeatherDisplay:10.37,2013-09-28 07:43:00,
2013-09-28 02:48:00,78.7,74.8,29.81,NW,309,0.0,0.0,88,0.00,CLR,,0.00,WeatherDisplay:10.37,2013-09-28 07:48:00,
2013-09-28 02:53:00,78.7,74.8,29.81,SSW,198,0.0,3.0,88,0.00,CLR,,0.00,WeatherDisplay:10.37,2013-09-28 07:53:00,
2013-09-28 02:58:00,78.8,74.9,29.81,NNW,343,0.3,3.0,88,0.00,CLR,,0.00,WeatherDisplay:10.37,2013-09-28 07:58:00,
2013-09-28 03:03:00,78.7,74.8,29.81,West,275,0.0,2.3,88,0.00,CLR,,0.00,WeatherDisplay:10.37,2013-09-28 08:03:00,
2013-09-28 03:08:00,78.7,74.8,29.81,North,5,0.0,0.0,88,0.00,CLR,,0.00,WeatherDisplay:10.37,2013-09-28 08:08:00,
2013-09-28 03:13:00,78.8,75.3,29.81,NNW,338,0.0,0.0,89,0.00,CLR,,0.00,WeatherDisplay:10.37,2013-09-28 08:13:00,
2013-09-28 03:18:00,78.7,75.2,29.81,NE,37,0.0,0.0,89,0.00,CLR,,0.00,WeatherDisplay:10.37,2013-09-28 08:18:00,
2013-09-28 03:23:00,78.7,75.2,29.81,NE,49,0.0,0.0,89,0.00,CLR,,0.00,WeatherDisplay:10.37,2013-09-28 08:23:00,
2013-09-28 03:28:00,78.7,75.2,29.81,SW,229,0.4,2.3,89,0.00,CLR,,0.00,WeatherDisplay:10.37,2013-09-28 08:28:00,
2013-09-28 03:33:00,78.6,75.1,29.80,SW,234,0.0,0.0,89,0.00,CLR,,0.00,WeatherDisplay:10.37,2013-09-28 08:33:00,
2013-09-28 03:38:00,78.6,75.1,29.80,West,279,0.0,0.0,89,0.00,CLR,,0.00,WeatherDisplay:10.37,2013-09-28 08:38:00,
2013-09-28 03:43:00,78.5,75.0,29.80,WNW,288,0.0,0.0,89,0.00,CLR,,0.00,WeatherDisplay:10.37,2013-09-28 08:43:00,
2013-09-28 03:48:00,78.5,75.0,29.81,North,355,0.0,1.2,89,0.00,CLR,,0.00,WeatherDisplay:10.37,2013-09-28 08:48:00,
2013-09-28 03:53:00,78.4,74.9,29.80,North,355,0.0,0.0,89,0.00,CLR,,0.00,WeatherDisplay:10.37,2013-09-28 08:53:00,
2013-09-28 03:58:00,78.4,74.9,29.80,North,355,0.0,0.0,89,0.00,CLR,,0.00,WeatherDisplay:10.37,2013-09-28 08:58:00,
2013-09-28 04:03:00,78.3,74.8,29.80,North,355,0.0,0.0,89,0.00,CLR,,0.00,WeatherDisplay:10.37,2013-09-28 09:03:00,
2013-09-28 04:08:00,78.3,74.8,29.80,NNE,12,0.0,0.0,89,0.00,CLR,,0.00,WeatherDisplay:10.37,2013-09-28 09:08:00,
2013-09-28 04:13:00,78.3,74.8,29.80,NNE,12,0.0,0.0,89,0.00,CLR,,0.00,WeatherDisplay:10.37,2013-09-28 09:13:00,
2013-09-28 04:18:00,78.3,74.8,29.80,NE,35,0.0,0.0,89,0.00,CLR,,0.00,WeatherDisplay:10.37,2013-09-28 09:18:00,
2013-09-28 04:23:00,78.3,74.8,29.80,NE,35,0.0,0.0,89,0.00,CLR,,0.00,WeatherDisplay:10.37,2013-09-28 09:23:00,
2013-09-28 04:28:00,78.3,75.1,29.80,NE,35,0.0,0.0,90,0.01,RA,,0.01,WeatherDisplay:10.37,2013-09-28 09:28:00,
2013-09-28 04:33:00,78.3,75.1,29.80,NE,40,0.0,0.0,90,0.03,RA,,0.03,WeatherDisplay:10.37,2013-09-28 09:33:00,
2013-09-28 04:38:00,78.2,75.0,29.80,NE,40,0.0,0.0,90,0.03,RA,,0.03,WeatherDisplay:10.37,2013-09-28 09:38:00,
2013-09-28 04:43:00,78.2,75.4,29.80,NE,39,0.0,1.2,91,0.03,,,0.03,WeatherDisplay:10.37,2013-09-28 09:43:00,
2013-09-28 04:49:00,78.0,75.2,29.80,ESE,109,0.0,3.5,91,0.03,CLR,,0.03,WeatherDisplay:10.37,2013-09-28 09:49:00,
2013-09-28 04:54:00,77.9,75.1,29.80,WNW,289,0.6,3.5,91,0.03,CLR,,0.03,WeatherDisplay:10.37,2013-09-28 09:54:00,
2013-09-28 04:59:00,77.7,74.9,29.80,West,269,0.0,0.0,91,0.03,CLR,,0.03,WeatherDisplay:10.37,2013-09-28 09:59:00,
2013-09-28 05:04:00,77.7,75.2,29.80,WSW,258,0.0,0.0,92,0.03,CLR,,0.03,WeatherDisplay:10.37,2013-09-28 10:04:00,
2013-09-28 05:09:00,77.6,75.1,29.80,West,259,0.0,0.0,92,0.03,CLR,,0.03,WeatherDisplay:10.37,2013-09-28 10:09:00,
2013-09-28 05:14:00,77.5,75.0,29.80,WSW,248,0.0,0.0,92,0.03,CLR,,0.03,WeatherDisplay:10.37,2013-09-28 10:14:00,
2013-09-28 05:19:00,77.4,74.9,29.80,WSW,248,0.0,0.0,92,0.03,CLR,,0.03,WeatherDisplay:10.37,2013-09-28 10:19:00,
2013-09-28 05:24:00,77.4,74.9,29.80,WSW,248,0.0,0.0,92,0.03,CLR,,0.03,WeatherDisplay:10.37,2013-09-28 10:24:00,
2013-09-28 05:29:00,77.3,74.8,29.80,WSW,248,0.0,0.0,92,0.01,CLR,,0.03,WeatherDisplay:10.37,2013-09-28 10:29:00,
2013-09-28 05:34:00,77.3,75.1,29.80,West,277,0.0,0.0,93,0.00,CLR,,0.03,WeatherDisplay:10.37,2013-09-28 10:34:00,
2013-09-28 05:39:00,77.3,75.1,29.80,West,277,0.0,0.0,93,0.00,CLR,,0.03,WeatherDisplay:10.37,2013-09-28 10:39:00,
2013-09-28 05:44:00,77.2,75.0,29.80,West,277,0.0,0.0,93,0.00,CLR,,0.03,WeatherDisplay:10.37,2013-09-28 10:44:00,
2013-09-28 05:49:00,77.1,74.9,29.80,West,277,0.0,0.0,93,0.00,CLR,,0.03,WeatherDisplay:10.37,2013-09-28 10:49:00,
2013-09-28 05:54:00,77.1,74.9,29.80,West,277,0.0,0.0,93,0.00,CLR,,0.03,WeatherDisplay:10.37,2013-09-28 10:54:00,
2013-09-28 05:59:00,77.1,74.9,29.80,West,277,0.0,0.0,93,0.00,CLR,,0.03,WeatherDisplay:10.37,2013-09-28 10:59:00,
2013-09-28 06:04:00,77.0,74.8,29.81,NE,51,0.0,0.0,93,0.00,CLR,,0.03,WeatherDisplay:10.37,2013-09-28 11:04:00,
2013-09-28 06:09:00,77.0,74.8,29.81,NE,51,0.0,0.0,93,0.00,CLR,,0.03,WeatherDisplay:10.37,2013-09-28 11:09:00,
2013-09-28 06:14:00,77.0,74.8,29.81,NE,51,0.0,0.0,93,0.00,CLR,,0.03,WeatherDisplay:10.37,2013-09-28 11:14:00,
2013-09-28 06:19:00,77.0,74.8,29.81,NE,51,0.0,0.0,93,0.00,CLR,,0.03,WeatherDisplay:10.37,2013-09-28 11:19:00,
2013-09-28 06:24:00,77.0,74.8,29.81,NE,51,0.0,0.0,93,0.00,CLR,,0.03,WeatherDisplay:10.37,2013-09-28 11:24:00,
2013-09-28 06:29:00,77.0,75.1,29.82,NE,51,0.0,0.0,94,0.00,CLR,,0.03,WeatherDisplay:10.37,2013-09-28 11:29:00,
2013-09-28 06:34:00,77.0,75.1,29.82,NE,51,0.0,0.0,94,0.00,CLR,,0.03,WeatherDisplay:10.37,2013-09-28 11:34:00,
2013-09-28 06:39:00,76.9,75.0,29.82,South,191,0.0,0.0,94,0.00,CLR,,0.03,WeatherDisplay:10.37,2013-09-28 11:39:00,
2013-09-28 06:44:00,77.0,75.1,29.82,South,191,0.0,0.0,94,0.00,CLR,,0.03,WeatherDisplay:10.37,2013-09-28 11:44:00,
2013-09-28 06:49:00,77.0,75.1,29.82,ENE,65,0.0,0.0,94,0.00,CLR,,0.03,WeatherDisplay:10.37,2013-09-28 11:49:00,
2013-09-28 06:54:00,77.0,75.1,29.83,ENE,65,0.0,0.0,94,0.00,CLR,,0.03,WeatherDisplay:10.37,2013-09-28 11:54:00,
2013-09-28 06:59:00,76.9,75.0,29.83,ENE,65,0.0,0.0,94,0.00,CLR,,0.03,WeatherDisplay:10.37,2013-09-28 11:59:00,
2013-09-28 07:04:00,77.0,75.1,29.83,ENE,65,0.0,0.0,94,0.00,CLR,,0.03,WeatherDisplay:10.37,2013-09-28 12:04:00,
2013-09-28 07:09:00,76.9,75.0,29.83,ENE,65,0.0,0.0,94,0.00,CLR,,0.03,WeatherDisplay:10.37,2013-09-28 12:09:00,
2013-09-28 07:14:00,76.9,75.0,29.83,ENE,65,0.0,0.0,94,0.00,CLR,,0.03,WeatherDisplay:10.37,2013-09-28 12:14:00,
2013-09-28 07:19:00,76.9,75.0,29.83,ENE,65,0.0,0.0,94,0.00,CLR,,0.03,WeatherDisplay:10.37,2013-09-28 12:19:00,
2013-09-28 07:24:00,76.9,75.0,29.83,NNW,338,0.1,1.2,94,0.00,CLR,,0.03,WeatherDisplay:10.37,2013-09-28 12:24:00,
2013-09-28 07:29:00,76.9,75.0,29.84,NNW,338,0.0,0.0,94,0.00,CLR,,0.03,WeatherDisplay:10.37,2013-09-28 12:29:00,
2013-09-28 07:34:00,76.9,75.0,29.83,NNW,338,0.0,0.0,94,0.00,CLR,,0.03,WeatherDisplay:10.37,2013-09-28 12:34:00,
2013-09-28 07:39:00,76.9,75.0,29.83,NNW,338,0.0,0.0,94,0.00,CLR,,0.03,WeatherDisplay:10.37,2013-09-28 12:39:00,
2013-09-28 07:44:00,76.9,75.0,29.83,NNW,338,0.0,0.0,94,0.00,CLR,,0.03,WeatherDisplay:10.37,2013-09-28 12:44:00,
2013-09-28 07:49:00,76.9,75.0,29.83,NNW,338,0.0,0.0,94,0.00,CLR,,0.03,WeatherDisplay:10.37,2013-09-28 12:49:00,
2013-09-28 07:54:00,76.9,75.0,29.83,NNW,338,0.2,2.3,94,0.00,CLR,,0.03,WeatherDisplay:10.37,2013-09-28 12:54:00,
2013-09-28 07:59:00,76.9,75.0,29.83,WSW,252,0.5,2.3,94,0.00,CLR,,0.03,WeatherDisplay:10.37,2013-09-28 12:59:00,
2013-09-28 08:04:00,76.9,75.0,29.84,SW,229,0.0,0.0,94,0.00,CLR,,0.03,WeatherDisplay:10.37,2013-09-28 13:04:00,
2013-09-28 08:09:00,77.0,75.1,29.84,WSW,240,0.1,1.2,94,0.00,CLR,,0.03,WeatherDisplay:10.37,2013-09-28 13:09:00,
2013-09-28 08:14:00,77.0,75.1,29.84,NW,326,0.0,0.0,94,0.00,CLR,,0.03,WeatherDisplay:10.37,2013-09-28 13:14:00,
2013-09-28 08:19:00,77.1,75.2,29.84,WNW,294,0.0,0.0,94,0.00,CLR,,0.03,WeatherDisplay:10.37,2013-09-28 13:19:00,
2013-09-28 08:24:00,77.1,75.2,29.85,SSW,194,0.0,0.0,94,0.00,CLR,,0.03,WeatherDisplay:10.37,2013-09-28 13:24:00,
2013-09-28 08:29:00,77.2,75.3,29.85,SSW,194,0.0,0.0,94,0.00,CLR,,0.03,WeatherDisplay:10.37,2013-09-28 13:29:00,
2013-09-28 08:34:00,77.2,75.3,29.85,SSW,194,0.0,0.0,94,0.00,CLR,,0.03,WeatherDisplay:10.37,2013-09-28 13:34:00,
2013-09-28 08:39:00,77.3,75.4,29.85,NNE,19,0.1,1.2,94,0.00,CLR,,0.03,WeatherDisplay:10.37,2013-09-28 13:39:00,
2013-09-28 08:44:00,77.4,75.5,29.85,South,174,0.4,3.5,94,0.00,CLR,,0.03,WeatherDisplay:10.37,2013-09-28 13:44:00,
2013-09-28 08:49:00,77.5,76.0,29.85,SW,217,0.4,2.3,95,0.00,CLR,,0.03,WeatherDisplay:10.37,2013-09-28 13:49:00,
2013-09-28 08:54:00,77.6,76.1,29.85,SW,236,0.1,1.2,95,0.00,CLR,,0.03,WeatherDisplay:10.37,2013-09-28 13:54:00,
2013-09-28 08:59:00,77.7,75.8,29.85,SW,214,0.0,0.0,94,0.00,CLR,,0.03,WeatherDisplay:10.37,2013-09-28 13:59:00,
2013-09-28 09:04:00,77.9,76.0,29.85,West,260,0.1,2.3,94,0.00,CLR,,0.03,WeatherDisplay:10.37,2013-09-28 14:04:00,
2013-09-28 09:09:00,78.0,76.1,29.86,West,265,0.7,3.5,94,0.00,CLR,,0.03,WeatherDisplay:10.37,2013-09-28 14:09:00,
2013-09-28 09:14:00,78.1,76.2,29.86,North,5,0.3,0.0,94,0.00,CLR,,0.03,WeatherDisplay:10.37,2013-09-28 14:14:00,
2013-09-28 09:19:00,78.2,76.3,29.86,South,186,0.6,1.2,94,0.00,CLR,,0.03,WeatherDisplay:10.37,2013-09-28 14:19:00,
2013-09-28 09:24:00,78.2,76.0,29.86,SSE,149,0.1,1.2,93,0.00,CLR,,0.03,WeatherDisplay:10.37,2013-09-28 14:24:00,
2013-09-28 09:29:00,78.3,76.1,29.86,WSW,244,1.8,6.9,93,0.00,CLR,,0.03,WeatherDisplay:10.37,2013-09-28 14:29:00,
2013-09-28 09:34:00,78.6,76.1,29.86,South,176,0.0,0.0,92,0.00,CLR,,0.03,WeatherDisplay:10.37,2013-09-28 14:34:00,
2013-09-28 09:39:00,78.8,75.9,29.86,SW,227,0.9,1.2,91,0.00,CLR,,0.03,WeatherDisplay:10.37,2013-09-28 14:39:00,
2013-09-28 09:44:00,79.0,76.1,29.86,SW,217,0.4,2.3,91,0.00,CLR,,0.03,WeatherDisplay:10.37,2013-09-28 14:44:00,
2013-09-28 09:49:00,79.3,76.1,29.86,SW,215,0.3,2.3,90,0.00,CLR,,0.03,WeatherDisplay:10.37,2013-09-28 14:49:00,
2013-09-28 09:54:00,79.7,76.2,29.86,ENE,72,0.1,1.2,89,0.00,CLR,,0.03,WeatherDisplay:10.37,2013-09-28 14:54:00,
2013-09-28 09:59:00,80.1,76.6,29.87,SW,231,0.5,1.2,89,0.00,CLR,,0.03,WeatherDisplay:10.37,2013-09-28 14:59:00,
2013-09-28 10:04:00,80.3,75.7,29.87,SSW,213,0.0,5.8,86,0.00,CLR,,0.03,WeatherDisplay:10.37,2013-09-28 15:04:00,
2013-09-28 10:09:00,80.6,75.3,29.87,SSW,212,1.1,6.9,84,0.00,CLR,,0.03,WeatherDisplay:10.37,2013-09-28 15:09:00,
2013-09-28 10:14:00,80.7,74.7,29.87,SSW,206,0.4,0.0,82,0.00,CLR,,0.03,WeatherDisplay:10.37,2013-09-28 15:14:00,
2013-09-28 10:19:00,80.7,74.7,29.87,South,186,1.8,5.0,82,0.00,CLR,,0.03,WeatherDisplay:10.37,2013-09-28 15:19:00,
2013-09-28 10:24:00,81.1,75.4,29.87,SSW,207,0.1,2.3,83,0.00,CLR,,0.03,WeatherDisplay:10.37,2013-09-28 15:24:00,
2013-09-28 10:29:00,81.2,75.2,29.87,SW,216,0.1,1.2,82,0.00,CLR,,0.03,WeatherDisplay:10.37,2013-09-28 15:29:00,
2013-09-28 10:34:00,81.4,75.4,29.87,SW,236,0.2,1.0,82,0.00,CLR,,0.03,WeatherDisplay:10.37,2013-09-28 15:34:00,
2013-09-28 10:39:00,81.5,75.5,29.87,SW,219,0.0,1.2,82,0.00,CLR,,0.03,WeatherDisplay:10.37,2013-09-28 15:39:00,
2013-09-28 10:44:00,81.6,75.6,29.87,SW,218,0.0,0.0,82,0.00,CLR,,0.03,WeatherDisplay:10.37,2013-09-28 15:44:00,
2013-09-28 10:49:00,82.1,76.1,29.87,North,355,0.2,1.2,82,0.00,CLR,,0.03,WeatherDisplay:10.37,2013-09-28 15:49:00,
2013-09-28 10:54:00,82.6,75.8,29.87,South,173,0.9,5.8,80,0.00,CLR,,0.03,WeatherDisplay:10.37,2013-09-28 15:54:00,
2013-09-28 10:59:00,82.7,75.9,29.87,WNW,302,0.6,3.5,80,0.00,CLR,,0.03,WeatherDisplay:10.37,2013-09-28 15:59:00,
2013-09-28 11:04:00,82.8,75.6,29.88,WSW,240,0.1,3.5,79,0.00,CLR,,0.03,WeatherDisplay:10.37,2013-09-28 16:04:00,
2013-09-28 11:09:00,82.8,76.0,29.87,SW,229,0.2,0.0,80,0.00,CLR,,0.03,WeatherDisplay:10.37,2013-09-28 16:09:00,
2013-09-28 11:14:00,83.0,76.2,29.87,SW,236,0.0,1.2,80,0.00,CLR,,0.03,WeatherDisplay:10.37,2013-09-28 16:14:00,
2013-09-28 11:19:00,83.1,75.9,29.87,SW,218,1.1,3.5,79,0.00,CLR,,0.03,WeatherDisplay:10.37,2013-09-28 16:19:00,
2013-09-28 11:24:00,83.2,75.2,29.87,SSE,168,0.3,3.5,77,0.00,CLR,,0.03,WeatherDisplay:10.37,2013-09-28 16:24:00,
2013-09-28 11:29:00,83.2,75.6,29.87,WSW,240,0.1,2.3,78,0.00,CLR,,0.03,WeatherDisplay:10.37,2013-09-28 16:29:00,
2013-09-28 11:34:00,83.3,75.7,29.87,West,259,0.1,1.2,78,0.00,CLR,,0.03,WeatherDisplay:10.37,2013-09-28 16:34:00,
2013-09-28 11:39:00,83.3,75.7,29.87,WSW,253,0.0,1.2,78,0.00,CLR,,0.03,WeatherDisplay:10.37,2013-09-28 16:39:00,
2013-09-28 11:44:00,83.4,75.8,29.87,WNW,296,0.0,1.2,78,0.00,CLR,,0.03,WeatherDisplay:10.37,2013-09-28 16:44:00,
2013-09-28 11:49:00,83.5,75.9,29.86,WSW,238,0.7,3.5,78,0.00,CLR,,0.03,WeatherDisplay:10.37,2013-09-28 16:49:00,
2013-09-28 11:54:00,83.5,75.5,29.86,WSW,249,1.2,2.3,77,0.00,CLR,,0.03,WeatherDisplay:10.37,2013-09-28 16:54:00,
2013-09-28 11:59:00,83.7,75.7,29.86,SW,226,0.4,3.5,77,0.00,CLR,,0.03,WeatherDisplay:10.37,2013-09-28 16:59:00,
2013-09-28 12:04:00,84.0,75.6,29.86,WSW,244,0.7,1.2,76,0.00,CLR,,0.03,WeatherDisplay:10.37,2013-09-28 17:04:00,
2013-09-28 12:09:00,84.2,75.8,29.86,WSW,254,0.7,3.5,76,0.00,CLR,,0.03,WeatherDisplay:10.37,2013-09-28 17:09:00,
2013-09-28 12:14:00,84.3,75.9,29.86,South,170,0.0,8.1,76,0.00,CLR,,0.03,WeatherDisplay:10.37,2013-09-28 17:14:00,
2013-09-28 12:19:00,84.4,76.0,29.86,SW,235,0.7,1.2,76,0.00,CLR,,0.03,WeatherDisplay:10.37,2013-09-28 17:19:00,
2013-09-28 12:24:00,84.7,76.3,29.86,SSW,196,0.0,1.2,76,0.00,CLR,,0.03,WeatherDisplay:10.37,2013-09-28 17:24:00,
2013-09-28 12:29:00,85.2,76.0,29.86,SSW,202,0.2,1.2,74,0.00,CLR,,0.03,WeatherDisplay:10.37,2013-09-28 17:29:00,
2013-09-28 12:34:00,85.5,75.4,29.86,NW,326,0.4,2.3,72,0.00,CLR,,0.03,WeatherDisplay:10.37,2013-09-28 17:34:00,
2013-09-28 12:39:00,85.8,76.1,29.85,SSW,192,0.2,1.2,73,0.00,CLR,,0.03,WeatherDisplay:10.37,2013-09-28 17:39:00,
2013-09-28 12:44:00,86.1,75.6,29.85,South,171,0.3,4.0,71,0.00,CLR,,0.03,WeatherDisplay:10.37,2013-09-28 17:44:00,
2013-09-28 12:49:00,86.3,75.4,29.85,WSW,239,0.2,3.5,70,0.00,CLR,,0.03,WeatherDisplay:10.37,2013-09-28 17:49:00,
2013-09-28 12:54:00,86.3,75.4,29.85,SW,227,0.2,2.3,70,0.00,CLR,,0.03,WeatherDisplay:10.37,2013-09-28 17:54:00,
2013-09-28 12:59:00,86.3,75.4,29.85,SW,217,0.4,1.2,70,0.00,CLR,,0.03,WeatherDisplay:10.37,2013-09-28 17:59:00,
2013-09-28 13:04:00,86.6,75.6,29.85,SSW,192,0.4,1.2,70,0.00,CLR,,0.03,WeatherDisplay:10.37,2013-09-28 18:04:00,
2013-09-28 13:09:00,86.9,75.1,29.85,South,178,0.0,3.5,68,0.00,CLR,,0.03,WeatherDisplay:10.37,2013-09-28 18:09:00,
2013-09-28 13:14:00,86.9,75.1,29.85,WSW,248,0.3,1.2,68,0.00,CLR,,0.03,WeatherDisplay:10.37,2013-09-28 18:14:00,
2013-09-28 13:19:00,87.2,75.3,29.85,WSW,248,1.2,4.6,68,0.00,CLR,,0.03,WeatherDisplay:10.37,2013-09-28 18:19:00,
2013-09-28 13:24:00,87.7,75.8,29.84,SSE,162,0.2,2.3,68,0.00,CLR,,0.03,WeatherDisplay:10.37,2013-09-28 18:24:00,
2013-09-28 13:29:00,87.8,75.5,29.84,SW,229,1.1,2.3,67,0.00,CLR,,0.03,WeatherDisplay:10.37,2013-09-28 18:29:00,
2013-09-28 13:34:00,87.9,75.6,29.84,SW,229,0.4,3.5,67,0.00,CLR,,0.03,WeatherDisplay:10.37,2013-09-28 18:34:00,
2013-09-28 13:39:00,88.3,75.9,29.84,SSW,211,0.5,3.5,67,0.00,CLR,,0.03,WeatherDisplay:10.37,2013-09-28 18:39:00,
2013-09-28 13:44:00,88.4,75.1,29.84,ENE,57,0.2,1.2,65,0.00,CLR,,0.03,WeatherDisplay:10.37,2013-09-28 18:44:00,
2013-09-28 13:49:00,88.4,75.6,29.84,NE,49,0.4,2.0,66,0.00,CLR,,0.03,WeatherDisplay:10.37,2013-09-28 18:49:00,
2013-09-28 13:54:00,88.4,75.1,29.83,SW,229,0.2,9.2,65,0.00,CLR,,0.03,WeatherDisplay:10.37,2013-09-28 18:54:00,
2013-09-28 13:59:00,88.5,75.7,29.83,SW,227,0.2,3.0,66,0.00,CLR,,0.03,WeatherDisplay:10.37,2013-09-28 18:59:00,
2013-09-28 14:04:00,88.8,75.0,29.83,WSW,248,0.8,4.6,64,0.00,CLR,,0.03,WeatherDisplay:10.37,2013-09-28 19:04:00,
2013-09-28 14:09:00,88.9,74.2,29.82,ESE,105,0.8,4.6,62,0.00,CLR,,0.03,WeatherDisplay:10.37,2013-09-28 19:09:00,
2013-09-28 14:14:00,88.9,74.7,29.82,SW,233,1.2,3.5,63,0.00,CLR,,0.03,WeatherDisplay:10.37,2013-09-28 19:14:00,
2013-09-28 14:19:00,89.9,75.1,29.82,East,85,0.4,2.3,62,0.00,CLR,,0.03,WeatherDisplay:10.37,2013-09-28 19:19:00,
2013-09-28 14:24:00,91.2,74.4,29.81,SW,224,1.7,5.0,58,0.00,CLR,,0.03,WeatherDisplay:10.37,2013-09-28 19:24:00,
2013-09-28 14:29:00,91.4,74.5,29.81,SSW,213,0.0,3.5,58,0.00,CLR,,0.03,WeatherDisplay:10.37,2013-09-28 19:29:00,
2013-09-28 14:34:00,91.5,74.6,29.80,SW,232,1.3,2.3,58,0.00,CLR,,0.03,WeatherDisplay:10.37,2013-09-28 19:34:00,
2013-09-28 14:39:00,92.2,74.2,29.80,SW,224,1.9,3.5,56,0.00,CLR,,0.03,WeatherDisplay:10.37,2013-09-28 19:39:00,
2013-09-28 14:44:00,92.9,74.4,29.80,SW,217,0.1,3.5,55,0.00,CLR,,0.03,WeatherDisplay:10.37,2013-09-28 19:44:00,
2013-09-28 14:49:00,92.8,73.7,29.80,SW,223,0.4,3.5,54,0.00,CLR,,0.03,WeatherDisplay:10.37,2013-09-28 19:49:00,
2013-09-28 14:54:00,93.1,74.0,29.79,South,183,2.7,3.5,54,0.00,CLR,,0.03,WeatherDisplay:10.37,2013-09-28 19:54:00,
2013-09-28 14:59:00,93.4,74.3,29.79,SSW,200,0.3,1.2,54,0.00,CLR,,0.03,WeatherDisplay:10.37,2013-09-28 19:59:00,
2013-09-28 15:04:00,93.2,74.1,29.79,NNW,333,0.5,2.3,54,0.00,CLR,,0.03,WeatherDisplay:10.37,2013-09-28 20:04:00,
2013-09-28 15:09:00,92.6,74.1,29.79,SSW,207,0.0,1.2,55,0.00,CLR,,0.03,WeatherDisplay:10.37,2013-09-28 20:09:00,
2013-09-28 15:14:00,91.9,73.4,29.80,WNW,285,1.7,9.2,55,0.00,CLR,,0.03,WeatherDisplay:10.37,2013-09-28 20:14:00,
2013-09-28 15:19:00,89.9,75.6,29.81,SSW,204,3.4,5.8,63,0.01,RA,,0.04,WeatherDisplay:10.37,2013-09-28 20:19:00,
2013-09-28 15:24:00,87.4,75.5,29.81,NNW,333,1.4,10.4,68,0.01,RA,,0.04,WeatherDisplay:10.37,2013-09-28 20:24:00,
2013-09-28 15:29:00,85.2,74.7,29.81,WNW,299,1.5,5.8,71,0.01,,,0.04,WeatherDisplay:10.37,2013-09-28 20:29:00,
2013-09-28 15:34:00,83.8,75.0,29.81,WNW,302,0.1,3.5,75,0.01,CLR,,0.04,WeatherDisplay:10.37,2013-09-28 20:34:00,
2013-09-28 15:39:00,83.0,75.0,29.81,NW,304,0.6,2.3,77,0.01,CLR,,0.04,WeatherDisplay:10.37,2013-09-28 20:39:00,
2013-09-28 15:44:00,82.2,74.7,29.81,NW,321,0.3,3.5,78,0.01,CLR,,0.04,WeatherDisplay:10.37,2013-09-28 20:44:00,
2013-09-28 15:49:00,81.5,74.7,29.81,NW,317,0.7,2.3,80,0.01,CLR,,0.04,WeatherDisplay:10.37,2013-09-28 20:49:00,
2013-09-28 15:54:00,80.8,74.4,29.80,WNW,300,0.6,3.5,81,0.01,CLR,,0.04,WeatherDisplay:10.37,2013-09-28 20:54:00,
2013-09-28 15:59:00,80.4,74.0,29.80,WNW,290,0.0,1.2,81,0.01,CLR,,0.04,WeatherDisplay:10.37,2013-09-28 20:59:00,
2013-09-28 16:04:00,80.3,74.3,29.79,WNW,290,0.0,0.0,82,0.01,CLR,,0.04,WeatherDisplay:10.37,2013-09-28 21:04:00,
2013-09-28 16:09:00,80.3,74.3,29.79,WNW,284,0.1,1.2,82,0.01,CLR,,0.04,WeatherDisplay:10.37,2013-09-28 21:09:00,
2013-09-28 16:14:00,80.3,74.7,29.80,WNW,283,0.0,1.2,83,0.01,CLR,,0.04,WeatherDisplay:10.37,2013-09-28 21:14:00,
2013-09-28 16:19:00,80.5,74.5,29.80,WNW,283,0.2,1.2,82,0.00,CLR,,0.04,WeatherDisplay:10.37,2013-09-28 21:19:00,
2013-09-28 16:24:00,80.7,74.7,29.80,NW,306,0.0,0.0,82,0.00,CLR,,0.04,WeatherDisplay:10.37,2013-09-28 21:24:00,
2013-09-28 16:29:00,81.1,75.1,29.80,WNW,303,0.7,6.0,82,0.00,CLR,,0.04,WeatherDisplay:10.37,2013-09-28 21:29:00,
2013-09-28 16:34:00,81.4,74.6,29.80,NW,315,0.0,1.2,80,0.00,CLR,,0.04,WeatherDisplay:10.37,2013-09-28 21:34:00,
2013-09-28 16:39:00,81.7,74.9,29.79,WSW,250,0.1,3.5,80,0.00,CLR,,0.04,WeatherDisplay:10.37,2013-09-28 21:39:00,
2013-09-28 16:44:00,82.0,75.2,29.79,West,278,0.0,0.0,80,0.00,CLR,,0.04,WeatherDisplay:10.37,2013-09-28 21:44:00,
2013-09-28 16:49:00,82.2,75.4,29.79,WNW,292,0.7,3.5,80,0.00,CLR,,0.04,WeatherDisplay:10.37,2013-09-28 21:49:00,
2013-09-28 16:54:00,82.4,76.0,29.79,WNW,295,0.9,3.5,81,0.00,CLR,,0.04,WeatherDisplay:10.37,2013-09-28 21:54:00,
2013-09-28 16:59:00,82.5,76.1,29.78,WNW,296,0.4,0.0,81,0.00,CLR,,0.04,WeatherDisplay:10.37,2013-09-28 21:59:00,
2013-09-28 17:04:00,82.6,76.2,29.78,NW,315,0.0,3.5,81,0.00,CLR,,0.04,WeatherDisplay:10.37,2013-09-28 22:04:00,
2013-09-28 17:09:00,82.7,76.3,29.78,NW,308,0.2,2.3,81,0.00,CLR,,0.04,WeatherDisplay:10.37,2013-09-28 22:09:00,
2013-09-28 17:14:00,82.8,76.4,29.78,WNW,299,0.0,0.0,81,0.00,CLR,,0.04,WeatherDisplay:10.37,2013-09-28 22:14:00,
2013-09-28 17:19:00,82.8,76.4,29.78,WNW,299,0.0,1.0,81,0.00,CLR,,0.04,WeatherDisplay:10.37,2013-09-28 22:19:00,
2013-09-28 17:24:00,82.9,76.5,29.78,WNW,299,0.0,0.0,81,0.00,CLR,,0.04,WeatherDisplay:10.37,2013-09-28 22:24:00,
2013-09-28 17:29:00,83.1,76.7,29.78,WNW,299,0.0,0.0,81,0.00,CLR,,0.04,WeatherDisplay:10.37,2013-09-28 22:29:00,
2013-09-28 17:34:00,83.2,76.8,29.78,WNW,302,0.1,1.0,81,0.00,CLR,,0.04,WeatherDisplay:10.37,2013-09-28 22:34:00,
2013-09-28 17:39:00,83.2,76.8,29.78,WNW,294,0.0,1.2,81,0.00,CLR,,0.04,WeatherDisplay:10.37,2013-09-28 22:39:00,
2013-09-28 17:44:00,83.3,76.9,29.78,WNW,302,0.3,2.3,81,0.00,CLR,,0.04,WeatherDisplay:10.37,2013-09-28 22:44:00,
2013-09-28 17:49:00,83.2,76.4,29.79,WNW,298,1.2,3.0,80,0.00,CLR,,0.04,WeatherDisplay:10.37,2013-09-28 22:49:00,
2013-09-28 17:54:00,83.2,76.4,29.80,WNW,290,0.5,3.5,80,0.00,CLR,,0.04,WeatherDisplay:10.37,2013-09-28 22:54:00,
2013-09-28 17:59:00,83.1,76.7,29.81,NE,42,0.9,0.0,81,0.00,CLR,,0.04,WeatherDisplay:10.37,2013-09-28 22:59:00,
2013-09-28 18:04:00,83.0,76.6,29.81,NE,42,0.0,1.2,81,0.00,CLR,,0.04,WeatherDisplay:10.37,2013-09-28 23:04:00,
2013-09-28 18:09:00,82.9,75.7,29.81,NE,36,1.0,4.6,79,0.00,CLR,,0.04,WeatherDisplay:10.37,2013-09-28 23:09:00,
2013-09-28 18:14:00,82.6,74.7,29.81,ENE,73,0.0,3.0,77,0.00,CLR,,0.04,WeatherDisplay:10.37,2013-09-28 23:14:00,
2013-09-28 18:19:00,82.5,75.3,29.82,ENE,61,0.0,1.2,79,0.00,CLR,,0.04,WeatherDisplay:10.37,2013-09-28 23:19:00,
2013-09-28 18:24:00,82.3,75.9,29.82,ENE,61,0.0,1.0,81,0.02,RA,,0.07,WeatherDisplay:10.37,2013-09-28 23:24:00,
2013-09-28 18:29:00,81.6,75.6,29.82,ENE,61,0.6,1.2,82,0.03,RA,,0.07,WeatherDisplay:10.37,2013-09-28 23:29:00,
2013-09-28 18:34:00,80.7,75.4,29.82,ENE,62,0.4,1.2,84,0.03,RA,,0.07,WeatherDisplay:10.37,2013-09-28 23:34:00,
2013-09-28 18:39:00,80.0,75.1,29.82,ENE,67,0.2,1.2,85,0.03,CLR,,0.07,WeatherDisplay:10.37,2013-09-28 23:39:00,
2013-09-28 18:44:00,79.7,75.1,29.82,ENE,69,0.0,0.0,86,0.03,CLR,,0.07,WeatherDisplay:10.37,2013-09-28 23:44:00,
2013-09-28 18:49:00,79.5,74.9,29.82,ENE,69,0.0,0.0,86,0.03,CLR,,0.07,WeatherDisplay:10.37,2013-09-28 23:49:00,
2013-09-28 18:54:00,79.3,75.1,29.82,ENE,69,0.0,0.0,87,0.03,CLR,,0.07,WeatherDisplay:10.37,2013-09-28 23:54:00,
2013-09-28 18:59:00,79.1,74.9,29.82,ENE,69,0.0,0.0,87,0.03,CLR,,0.07,WeatherDisplay:10.37,2013-09-28 23:59:00,
2013-09-28 19:04:00,79.0,74.8,29.82,ENE,69,0.0,0.0,87,0.03,CLR,,0.07,WeatherDisplay:10.37,2013-09-29 00:04:00,
2013-09-28 19:10:00,78.9,75.0,29.83,ENE,69,0.0,0.0,88,0.03,CLR,,0.07,WeatherDisplay:10.37,2013-09-29 00:10:00,
2013-09-28 19:15:00,78.7,74.8,29.83,ENE,69,0.0,0.0,88,0.03,CLR,,0.07,WeatherDisplay:10.37,2013-09-29 00:15:00,
2013-09-28 19:20:00,78.4,74.9,29.83,ENE,69,0.0,0.0,89,0.03,CLR,,0.07,WeatherDisplay:10.37,2013-09-29 00:20:00,
2013-09-28 19:25:00,78.3,74.8,29.83,ENE,69,0.0,0.0,89,0.00,CLR,,0.07,WeatherDisplay:10.37,2013-09-29 00:25:00,
2013-09-28 19:30:00,78.1,74.6,29.83,ENE,69,0.0,0.0,89,0.00,CLR,,0.07,WeatherDisplay:10.37,2013-09-29 00:30:00,
2013-09-28 19:35:00,77.9,74.7,29.84,ENE,74,0.0,1.2,90,0.00,CLR,,0.07,WeatherDisplay:10.37,2013-09-29 00:35:00,
2013-09-28 19:40:00,77.7,74.5,29.84,ENE,74,0.1,1.2,90,0.00,CLR,,0.07,WeatherDisplay:10.37,2013-09-29 00:40:00,
2013-09-28 19:45:00,77.6,74.8,29.85,ENE,74,0.0,0.0,91,0.02,RA,,0.10,WeatherDisplay:10.37,2013-09-29 00:45:00,
2013-09-28 19:50:00,77.6,74.8,29.85,ENE,74,0.0,1.2,91,0.06,RA,,0.13,WeatherDisplay:10.37,2013-09-29 00:50:00,
2013-09-28 19:55:00,77.5,74.7,29.86,WNW,295,0.1,1.2,91,0.12,RA,,0.20,WeatherDisplay:10.37,2013-09-29 00:55:00,
2013-09-28 20:00:00,77.2,74.4,29.85,NW,306,0.1,1.2,91,0.27,RA,,0.35,WeatherDisplay:10.37,2013-09-29 01:00:00,
2013-09-28 20:05:00,77.0,74.2,29.86,NW,306,0.0,0.0,91,0.36,RA,,0.44,WeatherDisplay:10.37,2013-09-29 01:05:00,
2013-09-28 20:10:00,76.8,74.3,29.85,NW,306,0.0,0.0,92,0.49,RA,,0.57,WeatherDisplay:10.37,2013-09-29 01:10:00,
2013-09-28 20:15:00,76.7,74.2,29.86,NW,306,0.0,0.0,92,0.56,RA,,0.63,WeatherDisplay:10.37,2013-09-29 01:15:00,
2013-09-28 20:20:00,76.6,74.4,29.85,NW,306,0.0,0.0,93,0.62,RA,,0.69,WeatherDisplay:10.37,2013-09-29 01:20:00,
2013-09-28 20:25:00,76.4,74.2,29.86,NW,306,0.7,3.5,93,0.64,RA,,0.71,WeatherDisplay:10.37,2013-09-29 01:25:00,
2013-09-28 20:30:00,76.2,74.0,29.85,NW,306,0.1,1.0,93,0.65,RA,,0.72,WeatherDisplay:10.37,2013-09-29 01:30:00,
2013-09-28 20:35:00,76.1,73.9,29.86,NW,306,0.0,1.2,93,0.65,RA,,0.72,WeatherDisplay:10.37,2013-09-29 01:35:00,
2013-09-28 20:40:00,76.1,73.9,29.88,NW,306,0.0,0.0,93,0.65,CLR,,0.73,WeatherDisplay:10.37,2013-09-29 01:40:00,
2013-09-28 20:45:00,76.0,74.1,29.88,ENE,68,1.0,3.5,94,0.98,RA,,1.09,WeatherDisplay:10.37,2013-09-29 01:45:00,
2013-09-28 20:50:00,75.9,74.0,29.88,NE,53,1.2,4.6,94,1.06,RA,,1.19,WeatherDisplay:10.37,2013-09-29 01:50:00,
2013-09-28 20:55:00,75.6,73.8,29.88,NE,42,0.0,0.0,94,1.00,RA,,1.19,WeatherDisplay:10.37,2013-09-29 01:55:00,
2013-09-28 21:00:00,75.1,72.9,29.88,NE,42,0.0,0.0,93,0.85,,,1.19,WeatherDisplay:10.37,2013-09-29 02:00:00,
2013-09-28 21:05:00,74.9,73.1,29.88,NE,42,0.0,0.0,94,0.77,RA,,1.20,WeatherDisplay:10.37,2013-09-29 02:05:00,
2013-09-28 21:10:00,74.7,72.5,29.89,NE,42,0.0,0.0,93,0.65,RA,,1.21,WeatherDisplay:10.37,2013-09-29 02:10:00,
2013-09-28 21:15:00,74.6,72.4,29.89,NE,42,0.0,0.0,93,0.58,RA,,1.21,WeatherDisplay:10.37,2013-09-29 02:15:00,
2013-09-28 21:20:00,74.5,72.7,29.88,NE,42,0.0,0.0,94,0.52,CLR,,1.21,WeatherDisplay:10.37,2013-09-29 02:20:00,
2013-09-28 21:25:00,74.5,72.7,29.88,NE,42,0.0,0.0,94,0.50,CLR,,1.21,WeatherDisplay:10.37,2013-09-29 02:25:00,
2013-09-28 21:30:00,74.5,72.7,29.88,NE,42,0.0,0.0,94,0.49,CLR,,1.21,WeatherDisplay:10.37,2013-09-29 02:30:00,
2013-09-28 21:35:00,74.6,72.8,29.88,NE,42,0.0,0.0,94,0.49,CLR,,1.21,WeatherDisplay:10.37,2013-09-29 02:35:00,
2013-09-28 21:40:00,74.6,72.8,29.88,NE,42,0.0,0.0,94,0.49,CLR,,1.21,WeatherDisplay:10.37,2013-09-29 02:40:00,
2013-09-28 21:45:00,74.6,72.8,29.89,NE,42,0.0,0.0,94,0.14,CLR,,1.21,WeatherDisplay:10.37,2013-09-29 02:45:00,
2013-09-28 21:50:00,74.6,72.8,29.89,NE,42,0.0,0.0,94,0.02,CLR,,1.21,WeatherDisplay:10.37,2013-09-29 02:50:00,
2013-09-28 21:55:00,74.6,72.8,29.89,NE,42,0.0,0.0,94,0.02,CLR,,1.21,WeatherDisplay:10.37,2013-09-29 02:55:00,
2013-09-28 22:00:00,74.8,73.3,29.89,NE,42,0.0,0.0,95,0.02,CLR,,1.21,WeatherDisplay:10.37,2013-09-29 03:00:00,
2013-09-28 22:06:00,75.0,73.5,29.89,NE,44,0.0,0.0,95,0.01,CLR,,1.21,WeatherDisplay:10.37,2013-09-29 03:06:00,
2013-09-28 22:11:00,75.2,73.7,29.90,NE,44,0.0,0.0,95,0.00,CLR,,1.21,WeatherDisplay:10.37,2013-09-29 03:11:00,
2013-09-28 22:16:00,75.2,73.7,29.90,NE,46,0.0,0.0,95,0.00,CLR,,1.21,WeatherDisplay:10.37,2013-09-29 03:16:00,
2013-09-28 22:21:00,75.3,73.8,29.90,NE,46,0.0,0.0,95,0.00,CLR,,1.21,WeatherDisplay:10.37,2013-09-29 03:21:00,
2013-09-28 22:26:00,75.2,73.7,29.89,NE,46,0.0,0.0,95,0.00,CLR,,1.21,WeatherDisplay:10.37,2013-09-29 03:26:00,
2013-09-28 22:31:00,75.2,73.7,29.89,NE,46,0.0,0.0,95,0.00,CLR,,1.21,WeatherDisplay:10.37,2013-09-29 03:31:00,
2013-09-28 22:36:00,75.1,73.6,29.88,NE,46,0.0,0.0,95,0.00,CLR,,1.21,WeatherDisplay:10.37,2013-09-29 03:36:00,
2013-09-28 22:41:00,75.1,73.6,29.88,NE,46,0.0,0.0,95,0.00,CLR,,1.21,WeatherDisplay:10.37,2013-09-29 03:41:00,
2013-09-28 22:46:00,75.0,73.5,29.88,NE,46,0.0,0.0,95,0.00,CLR,,1.21,WeatherDisplay:10.37,2013-09-29 03:46:00,
2013-09-28 22:52:00,74.9,73.4,29.87,NE,46,0.0,0.0,95,0.00,CLR,,1.21,WeatherDisplay:10.37,2013-09-29 03:52:00,
2013-09-28 22:57:00,74.9,73.4,29.88,NE,46,0.0,0.0,95,0.00,CLR,,1.21,WeatherDisplay:10.37,2013-09-29 03:57:00,
2013-09-28 23:01:00,74.8,73.3,29.88,NE,46,0.0,0.0,95,0.00,CLR,,1.21,WeatherDisplay:10.37,2013-09-29 04:01:00,
2013-09-28 23:06:00,74.7,73.2,29.88,NE,46,0.0,0.0,95,0.00,CLR,,1.21,WeatherDisplay:10.37,2013-09-29 04:06:00,
2013-09-28 23:11:00,74.7,73.2,29.88,NE,46,0.0,0.0,95,0.00,CLR,,1.21,WeatherDisplay:10.37,2013-09-29 04:11:00,
2013-09-28 23:16:00,74.6,73.1,29.89,NE,46,0.0,0.0,95,0.00,CLR,,1.21,WeatherDisplay:10.37,2013-09-29 04:16:00,
2013-09-28 23:21:00,74.6,73.1,29.89,NE,46,0.0,0.0,95,0.00,CLR,,1.21,WeatherDisplay:10.37,2013-09-29 04:21:00,
2013-09-28 23:26:00,74.5,73.0,29.89,NE,46,0.0,0.0,95,0.00,CLR,,1.21,WeatherDisplay:10.37,2013-09-29 04:26:00,
2013-09-28 23:31:00,74.5,73.0,29.89,NE,46,0.0,0.0,95,0.00,CLR,,1.21,WeatherDisplay:10.37,2013-09-29 04:31:00,
2013-09-28 23:36:00,74.4,72.9,29.89,NE,46,0.0,0.0,95,0.00,CLR,,1.21,WeatherDisplay:10.37,2013-09-29 04:36:00,
2013-09-28 23:41:00,74.3,72.8,29.89,NE,46,0.0,0.0,95,0.00,CLR,,1.21,WeatherDisplay:10.37,2013-09-29 04:41:00,
2013-09-28 23:46:00,74.4,72.9,29.89,NE,46,0.0,0.0,95,0.00,CLR,,1.21,WeatherDisplay:10.37,2013-09-29 04:46:00,
2013-09-28 23:51:00,74.4,72.9,29.88,NE,46,0.0,0.0,95,0.00,CLR,,1.21,WeatherDisplay:10.37,2013-09-29 04:51:00,
2013-09-28 23:56:00,74.5,73.0,29.89,NE,46,0.0,0.0,95,0.00,CLR,,1.21,WeatherDisplay:10.37,2013-09-29 04:56:00,